Location: Bucharest
(44.4268°N, 26.1025°E)
Time: 01:39:21
(UTC+03:00)

SPROUT - Pass Details

Date: 04 July 2022
Orbit: 588 x 598 km, 97.9° (Epoch: 18 August)

Event Time Altitude Azimuth Distance (km) Brightness Sun altitude
Exits shadow 00:34:10 - 88° (E) 2,029 ? -21.9°
Reaches altitude 10° 00:34:50 10° 79° (E) 1,919 ? -21.9°
Maximum altitude 00:36:12 11° 60° (ENE) 1,827 ? -21.9°
Drops below altitude 10° 00:37:34 10° 41° (NE) 1,925 ? -22.0°
Sets 00:41:09 0° 8° (N) 2,834 ? -22.1°
